FW8218 Weather Reports


time (UTC)temp
C
wind
direction
speed
KPH
gust
KPH
rain 1hr
cm
rain 24hr
cm
rain mn
cm
humidity
%
barometer
mb
20260510113216 14 327 14.5 27.4 0.00 0.00 0.00 71 1015.0
20260510112720 14 36 12.9 24.1 0.00 0.00 0.00 71 1015.0
20260510112212 14 21 12.9 25.7 0.00 0.00 0.00 72 1015.1
20260510111717 14 355 12.9 25.7 0.00 0.00 0.00 72 1015.0
20260510111214 13 11 14.5 24.1 0.00 0.00 0.00 72 1015.2
20260510110711 14 355 11.3 24.1 0.00 0.00 0.00 71 1015.2
20260510110215 14 25 9.7 22.5 0.00 0.00 0.00 71 1015.3
20260510105707 14 5 9.7 25.7 0.00 0.00 0.00 72 1015.2
20260510104716 14 9 11.3 25.7 0.00 0.00 0.00 73 1015.3
20260510104208 13 46 11.3 24.1 0.00 0.00 0.00 72 1015.4
20260510103216 13 11 12.9 22.5 0.00 0.00 0.00 73 1015.5
20260510102711 13 0 11.3 24.1 0.00 0.00 0.00 73 1015.6
20260510102219 13 317 9.7 24.1 0.00 0.00 0.00 73 1015.7
20260510101714 13 328 12.9 24.1 0.00 0.00 0.00 73 1015.8
20260510101206 13 310 14.5 24.1 0.00 0.00 0.00 73 1015.8
20260510100719 13 36 12.9 25.7 0.00 0.00 0.00 73 1015.9
20260510100211 13 329 12.9 25.7 0.00 0.00 0.00 73 1016.0
20260510095206 13 305 9.7 30.6 0.00 0.00 0.00 73 1015.9
20260510094706 13 322 12.9 30.6 0.00 0.00 0.00 73 1015.9
20260510094212 13 355 14.5 27.4 0.00 0.00 0.00 74 1015.8
20260510093707 13 0 12.9 22.5 0.00 0.00 0.00 73 1016.0
20260510093209 13 39 11.3 30.6 0.00 0.00 0.00 74 1016.0
20260510092708 13 36 9.7 30.6 0.00 0.00 0.00 74 1016.0
20260510092212 13 5 12.9 30.6 0.00 0.00 0.00 76 1016.0
20260510091719 13 344 14.5 24.1 0.00 0.00 0.00 75 1016.1
20260510091213 13 5 11.3 25.7 0.00 0.00 0.00 75 1016.2
20260510090714 13 336 9.7 25.7 0.00 0.00 0.00 75 1016.2
20260510085706 13 5 9.7 24.1 0.00 0.00 0.00 75 1016.1
20260510085207 13 347 9.7 24.1 0.00 0.00 0.00 76 1016.1
20260510084705 13 348 11.3 22.5 0.00 0.00 0.00 77 1016.2
20260510084209 13 334 11.3 22.5 0.00 0.00 0.00 76 1016.2
20260510083714 13 18 11.3 22.5 0.00 0.00 0.00 76 1016.2
20260510083209 13 340 11.3 22.5 0.00 0.00 0.00 76 1016.2
20260510082712 13 19 9.7 22.5 0.00 0.00 0.00 77 1016.3
20260510082212 13 9 11.3 22.5 0.00 0.00 0.00 77 1016.4
20260510081210 13 351 11.3 30.6 0.00 0.00 0.00 77 1016.2
20260510080710 13 36 12.9 30.6 0.00 0.00 0.00 76 1016.2
20260510080209 13 349 11.3 24.1 0.00 0.00 0.00 77 1016.3
20260510075711 13 355 9.7 24.1 0.00 0.00 0.00 77 1016.3
20260510075205 13 325 11.3 22.5 0.00 0.00 0.00 77 1016.3
20260510074715 13 319 9.7 27.4 0.00 0.00 0.00 77 1016.3
20260510074217 13 46 8.0 27.4 0.00 0.00 0.00 76 1016.4
20260510073709 13 52 11.3 27.4 0.00 0.00 0.00 77 1016.4
20260510073219 13 329 11.3 24.1 0.00 0.00 0.00 77 1016.3
20260510072712 13 349 9.7 24.1 0.00 0.00 0.00 77 1016.3
20260510072217 13 318 11.3 25.7 0.00 0.00 0.00 77 1016.3
20260510071709 13 74 12.9 25.7 0.00 0.00 0.00 76 1016.2
20260510071215 13 32 11.3 20.9 0.00 0.00 0.00 75 1016.2
20260510070207 13 324 9.7 20.9 0.00 0.00 0.00 73 1016.3
20260510065210 13 336 8.0 22.5 0.00 0.00 0.00 74 1016.1
20260510064717 13 53 8.0 22.5 0.00 0.00 0.00 74 1016.1
20260510064213 13 325 9.7 19.3 0.00 0.00 0.00 74 1016.1
20260510063719 13 22 8.0 22.5 0.00 0.00 0.00 74 1016.2
20260510062714 13 5 6.4 22.5 0.00 0.00 0.00 75 1016.3
20260510062211 13 115 8.0 24.1 0.00 0.00 0.00 75 1016.2
20260510061717 13 37 8.0 24.1 0.00 0.00 0.00 73 1016.2
20260510060708 13 29 6.4 19.3 0.00 0.00 0.00 71 1016.2
20260510060213 12 57 6.4 19.3 0.00 0.00 0.00 71 1016.2
20260510055705 12 340 6.4 17.7 0.00 0.00 0.00 73 1016.1
20260510055215 12 53 6.4 16.1 0.00 0.00 0.00 74 1016.1
20260510054718 12 41 4.8 17.7 0.00 0.00 0.00 75 1016.1
20260510054218 12 307 6.4 17.7 0.00 0.00 0.00 76 1016.1
20260510053714 12 22 6.4 19.3 0.00 0.00 0.00 75 1016.2
20260510053215 12 46 6.4 19.3 0.00 0.00 0.00 75 1016.2
20260510052713 12 317 4.8 19.3 0.00 0.00 0.00 75 1016.2
20260510052215 12 30 3.2 17.7 0.00 0.00 0.00 75 1016.2
20260510051718 12 65 4.8 14.5 0.00 0.00 0.00 75 1016.3
20260510050712 12 355 4.8 14.5 0.00 0.00 0.00 75 1016.3
20260510050219 11 348 3.2 12.9 0.00 0.00 0.00 75 1016.4
20260510045715 11 15 3.2 14.5 0.00 0.00 0.00 76 1016.3
20260510045218 11 5 3.2 14.5 0.00 0.00 0.00 76 1016.4
20260510044718 11 9 3.2 12.9 0.00 0.00 0.00 77 1016.3
20260510044211 11 11 3.2 12.9 0.00 0.00 0.00 77 1016.3
20260510043214 11 5 3.2 17.7 0.00 0.00 0.00 78 1016.2
20260510042710 11 5 4.8 17.7 0.00 0.00 0.00 78 1016.1
20260510042215 11 26 4.8 17.7 0.00 0.00 0.00 78 1016.1
20260510041716 11 21 4.8 9.7 0.00 0.00 0.00 78 1016.0
20260510041232 11 331 3.2 14.5 0.00 0.00 0.00 78 1016.0
20260510040717 11 12 3.2 14.5 0.00 0.00 0.00 78 1016.0
20260510035718 11 28 4.8 17.7 0.00 0.00 0.00 78 1016.1
20260510035209 11 0 4.8 17.7 0.00 0.00 0.00 79 1016.1
20260510034717 11 50 4.8 17.7 0.00 0.00 0.00 79 1016.2
20260510033218 11 22 3.2 12.9 0.00 0.00 0.00 80 1016.3
20260510032719 11 304 4.8 12.9 0.00 0.00 0.00 80 1016.3
20260510032208 11 13 3.2 12.9 0.00 0.00 0.00 80 1016.3
20260510031711 11 11 3.2 12.9 0.00 0.00 0.00 80 1016.4
20260510030712 11 20 3.2 12.9 0.00 0.00 0.00 82 1016.3
20260510030220 11 11 4.8 16.1 0.00 0.00 0.00 83 1016.4
20260510025709 11 50 4.8 16.1 0.00 0.00 0.00 83 1016.4
20260510024706 11 25 3.2 16.1 0.00 0.00 0.00 84 1016.5
20260510024220 11 355 3.2 16.1 0.00 0.00 0.00 84 1016.5
20260510023705 11 68 3.2 16.1 0.00 0.00 0.00 84 1016.5
20260510023215 11 25 3.2 14.5 0.00 0.00 0.00 84 1016.5
20260510022709 11 5 3.2 12.9 0.00 0.00 0.00 84 1016.5
20260510021705 11 348 4.8 12.9 0.00 0.00 0.00 84 1016.6
20260510020708 11 22 4.8 12.9 0.00 0.00 0.00 84 1016.5
20260510020213 11 14 3.2 12.9 0.00 0.00 0.00 84 1016.5
20260510015716 11 5 4.8 14.5 0.00 0.00 0.00 84 1016.4
20260510015214 11 307 3.2 14.5 0.00 0.00 0.00 84 1016.4
20260510014719 11 344 4.8 14.5 0.00 0.00 0.00 84 1016.4
20260510014212 11 23 4.8 12.9 0.00 0.00 0.00 84 1016.5
20260510013716 11 335 3.2 12.9 0.00 0.00 0.00 84 1016.6
20260510013211 11 23 4.8 12.9 0.00 0.00 0.00 84 1016.7
20260510012715 11 38 4.8 12.9 0.00 0.00 0.00 84 1016.6
20260510012220 11 309 3.2 14.5 0.00 0.00 0.00 84 1016.5
20260510011714 11 42 3.2 14.5 0.00 0.00 0.00 83 1016.4
20260510011209 11 355 3.2 14.5 0.00 0.00 0.00 83 1016.5
20260510010717 11 9 3.2 11.3 0.00 0.00 0.00 82 1016.6
20260510010206 11 17 3.2 11.3 0.00 0.00 0.00 82 1016.7
20260510005710 11 5 3.2 11.3 0.00 0.00 0.00 81 1016.8
20260510004711 11 333 1.6 8.0 0.00 0.00 0.00 80 1016.8
20260510004209 11 350 1.6 4.8 0.00 0.00 0.00 80 1016.9
20260510003719 11 12 1.6 6.4 0.00 0.00 0.00 80 1016.9
20260510003207 11 24 1.6 6.4 0.00 0.00 0.00 79 1016.9
20260510002717 11 9 1.6 6.4 0.00 0.00 0.00 79 1016.9
20260510002218 12 9 0.0 6.4 0.00 0.00 0.00 78 1016.9
20260510001711 12 345 1.6 6.4 0.00 0.00 0.00 78 1016.9
20260510000219 12 24 3.2 12.9 0.00 0.00 0.00 77 1017.0
20260509235718 12 331 1.6 12.9 0.00 0.00 0.00 76 1017.0
20260509235220 12 30 1.6 12.9 0.00 0.00 0.00 76 1017.1
20260509234708 12 37 3.2 12.9 0.00 0.00 0.00 76 1017.1
20260509234207 12 51 1.6 12.9 0.00 0.00 0.00 75 1017.1
20260509233707 12 340 1.6 12.9 0.00 0.00 0.00 75 1017.1
20260509233217 12 17 3.2 12.9 0.00 0.00 0.00 75 1017.2
20260509232710 12 40 3.2 12.9 0.00 0.00 0.00 75 1017.0
20260509232216 12 337 3.2 11.3 0.00 0.00 0.00 75 1017.0
20260509231212 12 355 3.2 9.7 0.00 0.00 0.00 75 1017.1
20260509230710 12 12 3.2 9.7 0.00 0.00 0.00 75 1017.0
20260509230216 12 31 3.2 9.7 0.00 0.00 0.00 75 1017.0
20260509225711 12 47 1.6 14.5 0.00 0.00 0.00 75 1017.1
20260509225212 12 338 3.2 14.5 0.00 0.00 0.00 74 1017.1
20260509224717 12 22 3.2 14.5 0.00 0.00 0.00 74 1017.1
20260509224213 12 37 3.2 9.7 0.00 0.00 0.00 74 1017.2
20260509223712 12 24 1.6 8.0 0.00 0.00 0.00 74 1017.2
20260509223217 12 344 1.6 6.4 0.00 0.00 0.00 73 1017.2
20260509222716 12 5 1.6 8.0 0.00 0.00 0.00 73 1017.2
20260509222207 12 24 3.2 8.0 0.00 0.00 0.00 73 1017.2
20260509221217 13 350 1.6 14.5 0.00 0.00 0.00 72 1017.2
20260509220711 13 44 3.2 14.5 0.00 0.00 0.00 72 1017.2
20260509220218 13 0 4.8 16.1 0.00 0.00 0.00 73 1017.1
20260509215713 13 68 4.8 16.1 0.00 0.00 0.00 73 1017.1
20260509215206 13 65 4.8 16.1 0.00 0.00 0.00 73 1017.1
20260509214717 13 57 4.8 14.5 0.00 0.00 0.00 73 1017.0
20260509212714 13 53 4.8 12.9 0.00 0.00 0.00 74 1017.1
20260509211206 13 26 3.2 12.9 0.00 0.00 0.00 74 1017.2
20260509210216 13 347 3.2 12.9 0.00 0.00 0.00 74 1017.2
20260509205715 13 31 3.2 12.9 0.00 0.00 0.00 74 1017.2
20260509205211 13 313 3.2 12.9 0.00 0.00 0.00 74 1017.2
20260509204718 13 17 3.2 12.9 0.00 0.00 0.00 74 1017.1
20260509204206 13 5 3.2 14.5 0.00 0.00 0.00 74 1017.1
20260509203707 13 84 3.2 14.5 0.00 0.00 0.00 73 1017.0
20260509202719 13 12 3.2 12.9 0.00 0.00 0.00 73 1017.0
20260509201715 13 0 3.2 12.9 0.00 0.00 0.00 73 1017.0
20260509201217 13 28 3.2 12.9 0.00 0.00 0.00 73 1017.0
20260509200706 13 329 3.2 12.9 0.00 0.00 0.00 73 1017.0
20260509200218 13 14 3.2 11.3 0.00 0.00 0.00 73 1017.1
20260509195714 13 18 4.8 14.5 0.00 0.00 0.00 73 1017.2
20260509195206 13 19 4.8 14.5 0.00 0.00 0.00 72 1017.2
20260509194720 13 43 4.8 14.5 0.00 0.00 0.00 72 1017.1
20260509194216 13 329 4.8 14.5 0.00 0.00 0.00 72 1017.0
20260509193716 13 0 4.8 14.5 0.00 0.00 0.00 71 1017.0
20260509193219 14 340 4.8 14.5 0.00 0.00 0.00 71 1016.9
20260509192713 14 321 4.8 14.5 0.00 0.00 0.00 70 1017.0
20260509192207 14 323 6.4 14.5 0.00 0.00 0.00 70 1017.0
20260509191717 14 5 6.4 16.1 0.00 0.00 0.00 70 1017.0
20260509191212 14 331 6.4 16.1 0.00 0.00 0.00 70 1016.9
20260509190711 14 319 6.4 16.1 0.00 0.00 0.00 69 1016.7
20260509190234 14 306 4.8 17.7 0.00 0.00 0.00 68 1016.7
20260509185732 14 48 6.4 17.7 0.00 0.00 0.00 68 1016.8
20260509185206 14 346 6.4 16.1 0.00 0.00 0.00 68 1016.7
20260509184706 15 336 4.8 16.1 0.00 0.00 0.00 67 1016.7
20260509184210 15 315 6.4 16.1 0.00 0.00 0.00 67 1016.7
20260509183710 15 310 6.4 16.1 0.00 0.00 0.00 67 1016.7
20260509183218 15 29 6.4 16.1 0.00 0.00 0.00 66 1016.7
20260509182714 15 355 6.4 17.7 0.00 0.00 0.00 66 1016.7
20260509182209 15 73 8.0 17.7 0.00 0.00 0.00 66 1016.7
20260509181208 15 16 8.0 17.7 0.00 0.00 0.00 64 1016.6
20260509180709 15 40 8.0 19.3 0.00 0.00 0.00 62 1016.6
20260509180216 15 0 8.0 19.3 0.00 0.00 0.00 61 1016.4
20260509175710 15 332 9.7 19.3 0.00 0.00 0.00 61 1016.5
20260509175218 16 326 8.0 19.3 0.00 0.00 0.00 60 1016.5
20260509174707 16 342 8.0 20.9 0.00 0.00 0.00 59 1016.5
20260509174209 16 337 9.7 20.9 0.00 0.00 0.00 59 1016.5
20260509173215 16 338 8.0 20.9 0.00 0.00 0.00 57 1016.7
20260509172212 16 348 6.4 19.3 0.00 0.00 0.00 56 1016.7
20260509171709 16 350 8.0 19.3 0.00 0.00 0.00 56 1016.7
20260509171214 16 333 8.0 19.3 0.00 0.00 0.00 55 1016.8
20260509170212 16 0 8.0 20.9 0.00 0.00 0.00 54 1016.8
20260509165718 17 23 6.4 20.9 0.00 0.00 0.00 54 1016.8
20260509165208 17 32 6.4 17.7 0.00 0.00 0.00 51 1016.8
20260509164709 17 340 6.4 19.3 0.00 0.00 0.00 51 1016.8
20260509164213 17 339 8.0 19.3 0.00 0.00 0.00 49 1016.7
20260509163715 17 305 6.4 17.7 0.00 0.00 0.00 47 1016.7
20260509163210 17 324 6.4 17.7 0.00 0.00 0.00 48 1016.8
20260509162710 17 14 6.4 19.3 0.00 0.00 0.00 47 1016.7
20260509161708 17 355 9.7 20.9 0.00 0.00 0.00 46 1016.7
20260509161219 17 329 8.0 20.9 0.00 0.00 0.00 46 1016.6
20260509160716 17 56 8.0 20.9 0.00 0.00 0.00 42 1016.7
20260509160220 17 74 8.0 19.3 0.00 0.00 0.00 43 1016.6
20260509155707 17 336 8.0 19.3 0.00 0.00 0.00 46 1016.6
20260509155210 17 35 6.4 19.3 0.00 0.00 0.00 43 1016.7
20260509154716 17 346 8.0 24.1 0.00 0.00 0.00 45 1016.6
20260509154215 17 5 9.7 24.1 0.00 0.00 0.00 44 1016.6
20260509153207 18 295 6.4 20.9 0.00 0.00 0.00 45 1016.6
20260509152714 17 325 8.0 20.9 0.00 0.00 0.00 43 1016.6
20260509152217 17 339 9.7 20.9 0.00 0.00 0.00 47 1016.6
20260509151715 17 5 9.7 20.9 0.00 0.00 0.00 47 1016.6
20260509151218 17 329 8.0 20.9 0.00 0.00 0.00 46 1016.6
20260509150718 17 344 9.7 20.9 0.00 0.00 0.00 46 1016.6
20260509150222 17 35 8.0 19.3 0.00 0.00 0.00 49 1016.6
20260509145717 18 341 8.0 19.3 0.00 0.00 0.00 50 1016.7
20260509145213 17 322 9.7 19.3 0.00 0.00 0.00 51 1016.7
20260509144707 17 344 9.7 24.1 0.00 0.00 0.00 51 1016.8
20260509144212 17 346 9.7 24.1 0.00 0.00 0.00 52 1016.8
20260509143706 17 313 11.3 24.1 0.00 0.00 0.00 53 1016.7
20260509143219 17 11 11.3 22.5 0.00 0.00 0.00 52 1016.7
20260509141708 18 350 9.7 20.9 0.00 0.00 0.00 51 1016.7
20260509140215 17 336 9.7 20.9 0.00 0.00 0.00 51 1017.0
20260509135706 17 334 9.7 19.3 0.00 0.00 0.00 51 1017.1
20260509135221 18 319 9.7 19.3 0.00 0.00 0.00 51 1017.2
20260509133715 18 313 8.0 17.7 0.00 0.00 0.00 52 1017.2
20260509133218 18 341 8.0 17.7 0.00 0.00 0.00 51 1017.3
20260509132208 18 348 8.0 19.3 0.00 0.00 0.00 52 1017.4
20260509131711 18 317 8.0 19.3 0.00 0.00 0.00 52 1017.4
20260509130717 18 345 8.0 22.5 0.00 0.00 0.00 53 1017.6
20260509130207 18 323 9.7 22.5 0.00 0.00 0.00 52 1017.6
20260509125710 18 17 9.7 20.9 0.00 0.00 0.00 52 1017.5
20260509125210 18 347 9.7 20.9 0.00 0.00 0.00 52 1017.6
20260509124714 18 318 8.0 17.7 0.00 0.00 0.00 51 1017.6
20260509123713 18 346 6.4 22.5 0.00 0.00 0.00 53 1017.7
20260509122718 18 288 8.0 17.7 0.00 0.00 0.00 51 1017.7
20260509121711 18 0 6.4 16.1 0.00 0.00 0.00 51 1017.8
20260509121220 19 337 6.4 14.5 0.00 0.00 0.00 49 1017.9
20260509120709 19 309 6.4 14.5 0.00 0.00 0.00 48 1017.9
20260509120212 19 122 4.8 14.5 0.00 0.00 0.00 50 1017.9
20260509115716 19 28 3.2 12.9 0.00 0.00 0.00 50 1018.0
20260509115213 19 57 1.6 12.9 0.00 0.00 0.00 49 1018.0